FW8459 Weather Reports


time (UTC)temp
F
wind
direction
speed
knots
gust
knots
rain 1hr
in
rain 24hr
in
rain mn
in
humidity
%
barometer
mb
20260904200556 41 281 0.0 0.0 0.00 0.00 0.00 99 1018.7
20260904200052 41 270 0.0 0.0 0.00 0.00 0.00 99 1018.7
20260904195550 41 299 0.0 0.0 0.00 0.00 0.00 99 1018.8
20260904195049 41 305 0.0 0.0 0.00 0.00 0.00 99 1018.9
20260904194544 41 304 0.0 0.0 0.00 0.00 0.00 99 1019.0
20260904194039 42 298 0.0 0.0 0.00 0.00 0.00 99 1018.9
20260904193533 42 284 0.0 0.0 0.00 0.00 0.00 99 1019.1
20260904193030 42 266 0.0 0.0 0.00 0.00 0.00 99 1019.1
20260904192529 41 283 0.0 0.0 0.00 0.00 0.00 99 1019.0
20260904192026 41 263 0.0 0.9 0.00 0.00 0.00 99 1018.8
20260904191522 40 275 0.0 0.0 0.00 0.00 0.00 99 1019.0
20260904191019 40 296 0.0 0.0 0.00 0.00 0.00 99 1018.9
20260904190514 40 295 0.0 0.0 0.00 0.00 0.00 99 1019.0
20260904190010 40 284 0.0 0.0 0.00 0.00 0.00 99 1019.0
20260904185506 40 283 0.0 0.0 0.00 0.00 0.00 99 1018.9
20260904185001 40 280 0.0 0.0 0.00 0.00 0.00 99 1019.2
20260904184501 40 283 0.0 0.0 0.00 0.00 0.00 99 1019.1
20260904183955 40 273 0.0 0.0 0.00 0.00 0.00 99 1019.1
20260904183451 40 291 0.0 0.0 0.00 0.00 0.00 99 1019.0
20260904182946 40 288 0.0 0.0 0.00 0.00 0.00 99 1019.1
20260904182441 40 286 0.0 0.0 0.00 0.00 0.00 99 1019.1
20260904181935 40 286 0.0 0.0 0.00 0.00 0.00 99 1019.1
20260904181431 41 286 0.0 0.0 0.00 0.00 0.00 99 1019.1
20260904180926 41 284 0.0 0.0 0.00 0.00 0.00 99 1019.0
20260904180421 41 277 0.0 0.0 0.00 0.00 0.00 99 1019.2
20260904175920 41 264 0.0 0.0 0.00 0.00 0.00 99 1019.2
20260904175419 41 278 0.0 0.0 0.00 0.00 0.00 99 1019.2
20260904174914 41 287 0.0 0.0 0.00 0.00 0.00 98 1019.2
20260904174409 41 288 0.0 0.0 0.00 0.00 0.00 98 1019.2
20260904173906 41 292 0.0 0.0 0.00 0.00 0.00 98 1019.2
20260904173401 41 292 0.0 0.0 0.00 0.00 0.00 98 1019.3
20260904172856 41 292 0.0 0.0 0.00 0.00 0.00 98 1019.2
20260904172355 41 297 0.0 0.0 0.00 0.00 0.00 98 1019.5
20260904171851 41 294 0.0 0.0 0.00 0.00 0.00 98 1019.3
20260904171346 41 295 0.0 0.0 0.00 0.00 0.00 98 1019.3
20260904170842 41 286 0.0 0.0 0.00 0.00 0.00 98 1019.1
20260904170337 42 286 0.0 0.0 0.00 0.00 0.00 98 1019.2
20260904165833 42 286 0.0 0.0 0.00 0.00 0.00 98 1019.2
20260904165331 42 286 0.0 0.0 0.00 0.00 0.00 98 1019.0
20260904164826 42 286 0.0 0.0 0.00 0.00 0.00 98 1019.3
20260904164321 42 288 0.0 0.0 0.00 0.00 0.00 98 1019.4
20260904163817 42 288 0.0 0.0 0.00 0.00 0.00 98 1019.5
20260904163312 42 289 0.0 0.0 0.00 0.00 0.00 97 1019.6
20260904162811 42 267 0.0 0.0 0.00 0.00 0.00 97 1019.5
20260904162306 42 284 0.0 0.0 0.00 0.00 0.00 97 1019.7
20260904161802 42 284 0.0 0.0 0.00 0.00 0.00 97 1019.7
20260904161301 42 249 0.0 0.0 0.00 0.00 0.00 97 1019.9
20260904160757 43 264 0.0 0.0 0.00 0.00 0.00 97 1019.9
20260904160252 43 280 0.0 0.0 0.00 0.00 0.00 97 1020.2
20260904155747 42 262 0.0 0.0 0.00 0.00 0.00 97 1020.2
20260904155247 43 296 0.0 0.0 0.00 0.00 0.00 97 1020.3
20260904154745 43 284 0.0 0.0 0.00 0.00 0.00 97 1020.3
20260904154240 43 284 0.0 0.0 0.00 0.00 0.00 97 1020.4
20260904153736 43 261 0.0 0.0 0.00 0.00 0.00 97 1020.4
20260904153231 43 288 0.0 0.0 0.00 0.00 0.00 97 1020.5
20260904152727 43 286 0.0 0.0 0.00 0.00 0.00 97 1020.5
20260904152222 43 267 0.0 0.0 0.00 0.00 0.00 97 1020.7
20260904151717 43 285 0.0 0.0 0.00 0.00 0.00 96 1020.6
20260904151216 44 280 0.0 0.0 0.00 0.00 0.00 96 1020.7
20260904150712 44 277 0.0 0.0 0.00 0.00 0.00 96 1020.7
20260904150207 44 276 0.0 0.0 0.00 0.00 0.00 96 1020.6
20260904145705 44 284 0.0 0.0 0.00 0.00 0.00 96 1020.8
20260904145201 44 281 0.0 0.0 0.00 0.00 0.00 96 1020.8
20260904144656 44 281 0.0 0.0 0.00 0.00 0.00 96 1020.8
20260904144152 44 286 0.0 0.0 0.00 0.00 0.00 96 1020.9
20260904143647 44 282 0.0 0.0 0.00 0.00 0.00 96 1020.7
20260904143144 44 292 0.0 0.0 0.00 0.00 0.00 95 1020.8
20260904142640 44 290 0.0 0.0 0.00 0.00 0.00 95 1021.0
20260904142136 44 289 0.0 0.0 0.00 0.00 0.00 95 1020.9
20260904141630 44 289 0.0 0.0 0.00 0.00 0.00 95 1021.0
20260904141126 44 281 0.0 0.0 0.00 0.00 0.00 95 1020.9
20260904140621 44 285 0.0 0.0 0.00 0.00 0.00 95 1021.3
20260904140115 44 296 0.0 0.0 0.00 0.00 0.00 95 1021.0
20260904135615 45 296 0.0 0.0 0.00 0.00 0.00 94 1021.1
20260904135111 45 296 0.0 0.0 0.00 0.00 0.00 94 1021.4
20260904134606 45 294 0.0 0.0 0.00 0.00 0.00 94 1021.1
20260904134100 46 279 0.0 0.0 0.00 0.00 0.00 94 1021.4
20260904133555 46 288 0.0 0.0 0.00 0.00 0.00 94 1021.3
20260904133051 46 277 0.0 0.0 0.00 0.00 0.00 93 1021.4
20260904132550 45 296 0.0 0.0 0.00 0.00 0.00 93 1021.1
20260904132045 46 295 0.0 0.0 0.00 0.00 0.00 93 1021.2
20260904131545 46 295 0.0 0.0 0.00 0.00 0.00 92 1021.2
20260904131041 46 285 0.0 0.0 0.00 0.00 0.00 92 1021.2
20260904130540 46 278 0.0 0.0 0.00 0.00 0.00 92 1021.2
20260904130035 47 285 0.0 0.0 0.00 0.00 0.00 92 1021.3
20260904125532 47 279 0.0 0.0 0.00 0.00 0.00 92 1021.2
20260904125026 48 283 0.0 0.0 0.00 0.00 0.00 92 1020.9
20260904124522 48 258 0.0 0.0 0.00 0.00 0.00 93 1020.9
20260904124017 47 267 0.0 0.0 0.00 0.00 0.00 92 1021.1
20260904123516 47 266 0.0 0.0 0.00 0.00 0.00 91 1021.1
20260904123013 47 264 0.0 0.0 0.00 0.00 0.00 91 1021.2
20260904122507 47 271 0.0 0.0 0.00 0.00 0.00 90 1021.3
20260904122002 48 271 0.0 0.0 0.00 0.00 0.00 90 1021.2
20260904121458 48 281 0.0 0.0 0.00 0.00 0.00 90 1021.1
20260904120954 48 280 0.0 0.0 0.00 0.00 0.00 90 1021.3
20260904120449 49 281 0.0 0.0 0.00 0.00 0.00 90 1021.2
20260904115944 49 276 0.0 0.0 0.00 0.00 0.00 90 1021.5
20260904115440 49 251 0.0 0.9 0.00 0.00 0.00 90 1021.3
20260904114940 49 304 0.0 0.0 0.00 0.00 0.00 89 1021.2
20260904114440 50 272 0.0 0.0 0.00 0.00 0.00 88 1021.1
20260904113935 50 275 0.0 0.0 0.00 0.00 0.00 88 1021.3
20260904113434 50 247 0.0 0.9 0.00 0.00 0.00 88 1021.3
20260904112934 50 273 0.0 0.0 0.00 0.00 0.00 87 1021.3
20260904112430 50 272 0.0 0.0 0.00 0.00 0.00 87 1021.5
20260904111925 51 288 0.0 0.0 0.00 0.00 0.00 86 1021.5
20260904111421 51 285 0.0 0.0 0.00 0.00 0.00 86 1021.5
20260904110917 51 281 0.0 0.0 0.00 0.00 0.00 86 1021.8
20260904110415 51 286 0.0 0.0 0.00 0.00 0.00 85 1021.8
20260904105910 52 309 0.0 0.0 0.00 0.00 0.00 85 1021.6
20260904105406 52 287 0.0 0.0 0.00 0.00 0.00 84 1021.8
20260904104901 52 314 0.0 0.0 0.00 0.00 0.00 84 1021.8
20260904104355 53 305 0.0 0.0 0.00 0.00 0.00 84 1021.4
20260904103853 53 315 0.0 0.9 0.00 0.00 0.00 84 1021.6
20260904103352 53 327 0.9 0.9 0.00 0.00 0.00 84 1021.6
20260904102848 52 78 0.9 0.9 0.00 0.00 0.00 84 1021.8
20260904102343 53 297 0.0 0.0 0.00 0.00 0.00 82 1021.6
20260904101839 53 294 0.0 0.0 0.00 0.00 0.00 81 1021.5
20260904101336 54 289 0.0 0.0 0.00 0.00 0.00 80 1021.3
20260904100831 54 345 0.0 0.9 0.00 0.00 0.00 80 1021.9
20260904100327 55 310 0.0 0.0 0.00 0.00 0.00 79 1021.9
20260904095822 55 321 0.9 0.9 0.00 0.00 0.00 79 1021.4
20260904095316 55 302 0.0 0.0 0.00 0.00 0.00 79 1021.8
20260904094811 54 277 0.0 0.0 0.00 0.00 0.00 80 1021.5
20260904094306 54 300 0.0 0.0 0.00 0.00 0.00 80 1021.5
20260904093803 54 275 0.0 0.0 0.00 0.00 0.00 80 1021.3
20260904093303 54 296 0.0 0.0 0.00 0.00 0.00 80 1021.1
20260904092758 54 284 0.0 0.0 0.00 0.00 0.00 81 1021.0
20260904092255 53 295 0.0 0.0 0.00 0.00 0.00 81 1021.1
20260904091751 53 298 0.0 0.0 0.00 0.00 0.00 81 1021.1
20260904091251 53 271 0.0 0.0 0.00 0.00 0.00 81 1021.0
20260904090746 53 296 0.0 0.0 0.00 0.00 0.00 80 1020.8
20260904090242 53 300 0.0 0.0 0.00 0.00 0.00 80 1021.1
20260904085737 53 302 0.0 0.0 0.00 0.00 0.00 80 1020.7
20260904085232 53 294 0.0 0.0 0.00 0.00 0.00 79 1021.0
20260904084726 53 294 0.0 0.0 0.00 0.00 0.00 78 1021.0
20260904084222 54 286 0.0 0.0 0.00 0.00 0.00 77 1020.8
20260904083719 54 274 0.0 0.0 0.00 0.00 0.00 76 1020.9
20260904083215 55 271 0.0 0.0 0.00 0.00 0.00 74 1020.5
20260904082715 56 278 0.0 0.0 0.00 0.00 0.00 73 1020.3
20260904082210 56 274 0.0 0.0 0.00 0.00 0.00 72 1020.4
20260904081705 57 271 0.0 0.0 0.00 0.00 0.00 73 1020.3
20260904081200 57 270 0.0 0.9 0.00 0.00 0.00 72 1020.2
20260904080656 57 253 0.0 0.9 0.00 0.00 0.00 72 1020.3
20260904080152 58 224 0.9 0.9 0.00 0.00 0.00 71 1019.9
20260904075649 58 251 0.9 0.9 0.00 0.00 0.00 70 1020.0
20260904075143 59 233 0.9 0.9 0.00 0.00 0.00 70 1019.8
20260904074642 59 228 0.9 1.7 0.00 0.00 0.00 69 1019.7
20260904074137 59 235 0.9 0.9 0.00 0.00 0.00 68 1019.9
20260904073632 60 216 0.9 0.9 0.00 0.00 0.00 67 1019.7
20260904073128 60 210 2.6 2.6 0.00 0.00 0.00 66 1019.6
20260904072624 60 238 1.7 1.7 0.00 0.00 0.00 66 1019.7
20260904072119 61 232 2.6 2.6 0.00 0.00 0.00 65 1019.8
20260904071615 62 207 0.9 0.9 0.00 0.00 0.00 64 1019.6
20260904071109 62 222 1.7 1.7 0.00 0.00 0.00 64 1019.6
20260904070608 62 249 1.7 1.7 0.00 0.00 0.00 63 1019.6
20260904070103 62 258 1.7 1.7 0.00 0.00 0.00 62 1019.7
20260904065558 63 245 0.9 0.9 0.00 0.00 0.00 63 1019.5
20260904065054 63 241 3.5 4.3 0.00 0.00 0.00 62 1019.5
20260904064550 64 216 2.6 4.3 0.00 0.00 0.00 61 1019.7
20260904064050 64 230 2.6 2.6 0.00 0.00 0.00 61 1019.4
20260904063546 65 181 2.6 2.6 0.00 0.00 0.00 60 1019.3
20260904063041 66 246 0.9 0.9 0.00 0.00 0.00 57 1019.5
20260904062538 66 178 1.7 2.6 0.00 0.00 0.00 55 1019.3
20260904062033 66 198 0.0 0.9 0.00 0.00 0.00 56 1019.3
20260904061528 66 218 0.9 0.9 0.00 0.00 0.00 55 1019.3
20260904061025 66 296 0.0 0.9 0.00 0.00 0.00 56 1019.2
20260904060521 66 165 0.9 0.9 0.00 0.00 0.00 55 1019.3
20260904060017 66 202 1.7 2.6 0.00 0.00 0.00 55 1019.0
20260904055512 67 222 2.6 2.6 0.00 0.00 0.00 54 1019.2
20260904055007 67 158 0.0 0.9 0.00 0.00 0.00 54 1019.4
20260904054503 67 176 0.9 1.7 0.00 0.00 0.00 54 1019.5
20260904053958 67 169 0.9 0.9 0.00 0.00 0.00 54 1019.6
20260904053458 67 269 2.6 2.6 0.00 0.00 0.00 53 1019.4
20260904052953 67 212 0.9 0.9 0.00 0.00 0.00 53 1019.3
20260904052449 68 142 2.6 4.3 0.00 0.00 0.00 53 1019.3
20260904051945 67 194 0.9 1.7 0.00 0.00 0.00 53 1019.6
20260904051442 67 269 1.7 1.7 0.00 0.00 0.00 53 1019.2
20260904050940 67 232 1.7 1.7 0.00 0.00 0.00 53 1019.4
20260904050437 67 185 1.7 2.6 0.00 0.00 0.00 52 1019.3
20260904045937 68 241 0.9 1.7 0.00 0.00 0.00 51 1019.6
20260904045433 69 240 1.7 1.7 0.00 0.00 0.00 50 1019.5
20260904044933 68 49 1.7 2.6 0.00 0.00 0.00 52 1019.5
20260904044429 68 236 2.6 2.6 0.00 0.00 0.00 51 1019.5
20260904043925 69 231 0.9 1.7 0.00 0.00 0.00 52 1019.3
20260904043421 69 314 2.6 4.3 0.00 0.00 0.00 51 1019.5
20260904042917 68 228 1.7 1.7 0.00 0.00 0.00 52 1019.4
20260904042413 68 123 1.7 1.7 0.00 0.00 0.00 53 1019.4
20260904041908 68 217 2.6 2.6 0.00 0.00 0.00 54 1019.5
20260904041404 68 193 2.6 4.3 0.00 0.00 0.00 54 1019.5
20260904040900 68 264 1.7 1.7 0.00 0.00 0.00 53 1019.4
20260904040354 69 293 0.0 0.0 0.00 0.00 0.00 52 1019.4
20260904035850 69 324 0.9 1.7 0.00 0.00 0.00 52 1019.5
20260904035346 69 198 0.0 0.9 0.00 0.00 0.00 52 1019.5
20260904034845 69 314 0.0 0.9 0.00 0.00 0.00 52 1019.6
20260904034341 69 229 2.6 2.6 0.00 0.00 0.00 52 1019.8
20260904033836 68 263 0.0 0.9 0.00 0.00 0.00 53 1019.8
20260904033332 68 252 2.6 2.6 0.00 0.00 0.00 53 1019.9
20260904032828 68 323 1.7 2.6 0.00 0.00 0.00 54 1020.2
20260904032323 66 247 2.6 2.6 0.00 0.00 0.00 59 1020.6
20260904031816 69 230 1.7 1.7 0.00 0.00 0.00 56 1020.7
20260904031312 69 313 0.9 0.9 0.00 0.00 0.00 56 1020.6
20260904030808 68 261 0.9 0.9 0.00 0.00 0.00 57 1020.7
20260904030303 67 298 0.0 0.9 0.00 0.00 0.00 59 1021.1
20260904025759 67 170 2.6 2.6 0.00 0.00 0.00 58 1021.0
20260904025255 66 276 0.0 0.9 0.00 0.00 0.00 61 1021.4
20260904024749 65 224 1.7 1.7 0.00 0.00 0.00 60 1021.3
20260904024245 66 221 2.6 4.3 0.00 0.00 0.00 59 1021.4
20260904023741 66 55 0.9 1.7 0.00 0.00 0.00 58 1021.6
20260904023237 67 234 0.0 0.0 0.00 0.00 0.00 58 1021.9
20260904022736 67 285 1.7 2.6 0.00 0.00 0.00 56 1021.9
20260904022234 67 66 0.9 1.7 0.00 0.00 0.00 59 1022.1
20260904021730 65 320 0.0 0.0 0.00 0.00 0.00 59 1022.0
20260904021230 65 286 2.6 4.3 0.00 0.00 0.00 59 1022.2
20260904020726 65 325 0.0 0.9 0.00 0.00 0.00 59 1022.1
20260904020225 66 197 2.6 4.3 0.00 0.00 0.00 56 1022.1
20260904015723 66 318 0.0 0.0 0.00 0.00 0.00 59 1022.1
20260904015219 65 324 0.0 0.0 0.00 0.00 0.00 58 1022.2
20260904014717 66 218 0.9 0.9 0.00 0.00 0.00 57 1022.1
20260904014213 66 286 0.0 0.9 0.00 0.00 0.00 59 1022.1
20260904013709 65 288 0.9 0.9 0.00 0.00 0.00 58 1022.2
20260904013205 64 306 0.9 1.7 0.00 0.00 0.00 61 1022.3
20260904012701 65 169 0.9 1.7 0.00 0.00 0.00 58 1022.2
20260904012159 64 18 0.9 0.9 0.00 0.00 0.00 62 1022.7
20260904011659 62 324 0.0 0.9 0.00 0.00 0.00 64 1022.6
20260904011154 62 199 0.9 0.9 0.00 0.00 0.00 65 1022.8
20260904010650 63 266 1.7 1.7 0.00 0.00 0.00 63 1022.8
20260904010146 63 173 1.7 1.7 0.00 0.00 0.00 62 1023.0
20260904005641 64 350 1.7 1.7 0.00 0.00 0.00 63 1023.1
20260904005137 62 164 0.0 0.9 0.00 0.00 0.00 64 1023.4
20260904004632 60 229 0.9 0.9 0.00 0.00 0.00 66 1023.0
20260904004131 61 209 2.6 4.3 0.00 0.00 0.00 66 1023.5
20260904003628 62 234 2.6 2.6 0.00 0.00 0.00 63 1023.4
20260904003124 62 164 2.6 2.6 0.00 0.00 0.00 64 1023.4
20260904002620 62 197 0.9 0.9 0.00 0.00 0.00 64 1023.4
20260904002120 62 9 0.9 0.9 0.00 0.00 0.00 66 1023.5
20260904001615 62 339 0.0 0.0 0.00 0.00 0.00 64 1023.6
20260904001114 62 246 0.0 0.9 0.00 0.00 0.00 65 1023.7
20260904000609 61 230 0.9 1.7 0.00 0.00 0.00 66 1023.7
20260904000105 61 186 0.9 0.9 0.00 0.00 0.00 66 1023.6
20260903235604 61 335 0.9 1.7 0.00 0.00 0.00 66 1023.8
20260903235100 60 43 0.9 0.9 0.00 0.00 0.00 67 1023.8
20260903234555 60 15 0.0 0.9 0.00 0.00 0.00 67 1023.6
20260903234051 60 220 0.9 1.7 0.00 0.00 0.00 67 1023.4
20260903233547 59 355 0.0 0.0 0.00 0.00 0.00 69 1023.2
20260903233042 58 289 0.0 0.0 0.00 0.00 0.00 71 1023.2
20260903232538 58 208 0.9 1.7 0.00 0.00 0.00 70 1023.2
20260903232033 59 254 1.7 1.7 0.00 0.00 0.00 69 1023.2
20260903231527 58 13 0.0 0.0 0.00 0.00 0.00 70 1023.5
20260903231021 58 302 0.0 0.0 0.00 0.00 0.00 70 1023.6
20260903230518 58 7 0.0 0.9 0.00 0.00 0.00 70 1023.6
20260903230016 57 30 0.9 0.9 0.00 0.00 0.00 70 1023.7
20260903225514 55 342 0.0 0.0 0.00 0.00 0.00 74 1023.5
20260903225010 56 47 0.9 0.9 0.00 0.00 0.00 72 1023.8
20260903224506 55 331 0.0 0.0 0.00 0.00 0.00 75 1023.8
20260903224002 54 21 0.9 0.9 0.00 0.00 0.00 75 1023.7
20260903223501 52 30 0.9 0.9 0.00 0.00 0.00 77 1023.7
20260903223000 52 224 0.0 0.0 0.00 0.00 0.00 78 1023.8
20260903222455 53 30 0.9 1.7 0.00 0.00 0.00 76 1023.8
20260903221954 52 23 0.9 0.9 0.00 0.00 0.00 78 1023.7
20260903221449 51 204 0.9 1.7 0.00 0.00 0.00 78 1023.8
20260903220947 51 59 0.9 1.7 0.00 0.00 0.00 79 1023.7
20260903220441 51 38 0.0 0.0 0.00 0.00 0.00 80 1023.9
20260903215939 49 357 0.0 0.0 0.00 0.00 0.00 85 1023.8
20260903215436 48 149 0.0 0.9 0.00 0.00 0.00 88 1023.8
20260903214934 48 352 0.0 0.0 0.00 0.00 0.00 97 1024.0
20260903214430 46 338 0.0 0.0 0.00 0.00 0.00 99 1023.7
20260903213929 45 22 0.0 0.0 0.00 0.00 0.00 99 1023.8
20260903213425 43 354 0.0 0.0 0.00 0.00 0.00 99 1023.9
20260903212921 41 266 0.0 0.0 0.00 0.00 0.00 99 1023.8
20260903212416 40 266 0.0 0.0 0.00 0.00 0.00 99 1023.7
20260903211916 40 292 0.0 0.0 0.00 0.00 0.00 99 1023.6
20260903211412 39 306 0.0 0.0 0.00 0.00 0.00 99 1023.7
20260903210908 39 316 0.0 0.0 0.00 0.00 0.00 99 1023.6
20260903210407 38 316 0.0 0.0 0.00 0.00 0.00 99 1023.5
20260903205903 38 283 0.0 0.0 0.00 0.00 0.00 99 1023.4
20260903205402 38 217 0.0 0.0 0.00 0.00 0.00 99 1023.2
20260903204857 37 303 0.0 0.0 0.00 0.00 0.00 99 1023.1
20260903204353 37 286 0.0 0.0 0.00 0.00 0.00 99 1023.1
20260903203848 37 302 0.0 0.0 0.00 0.00 0.00 99 1022.8
20260903203344 37 274 0.0 0.0 0.00 0.00 0.00 99 1023.0
20260903202843 37 268 0.0 0.0 0.00 0.00 0.00 99 1023.1
20260903202340 37 265 0.0 0.0 0.00 0.00 0.00 99 1022.8
20260903201839 37 277 0.0 0.0 0.00 0.00 0.00 99 1022.9
20260903201335 37 273 0.0 0.0 0.00 0.00 0.00 99 1022.9